GFSCGP_850_temp_078.txt.gz
Temp
6 5 5 8 5 6 4 6 7 9 8 12 8 11 9 9 12 13 12 12 12 13 11 11 13 13 12 13 13 13 13 14 14 14 13 14 13 14 14 15 14 14 14 14
6 6 8 7 6 5 5 6 8 8 10 12 8 9 8 9 11 12 12 11 10 12 12 12 11 11 12 12 12 12 13 12 12 13 13 13 13 13 13 13 13 13 13 14
5 7 7 6 5 5 5 8 9 7 8 9 10 8 7 9 10 10 9 10 9 10 10 11 11 12 12 11 11 12 11 12 12 13 13 14 13 13 14 12 12 12 12 13
5 6 6 6 5 7 8 9 6 6 7 9 8 10 6 6 10 10 11 10 9 9 9 10 10 11 12 12 12 12 12 12 12 13 13 13 13 13 13 12 13 12 12 11
6 6 7 7 5 8 9 8 7 7 10 10 8 9 7 9 9 10 10 9 9 10 10 11 11 13 12 13 13 12 13 13 13 12 12 12 12 12 12 12 12 11 11 12
6 7 8 7 7 8 8 10 10 10 11 10 8 9 8 7 9 10 9 7 8 9 9 10 11 12 13 14 14 14 14 14 13 14 13 13 13 12 12 12 11 12 12 12
8 6 5 5 7 7 8 11 9 10 10 10 8 9 6 10 9 10 7 6 7 7 7 10 11 12 12 13 13 14 14 14 14 14 14 14 13 13 13 13 13 12 12 12
7 7 5 7 7 9 10 10 11 12 11 10 11 8 6 9 8 5 5 5 6 7 6 10 10 10 11 11 12 12 13 12 12 13 13 13 13 13 13 13 13 13 13 13
8 7 6 7 9 10 10 10 11 11 10 11 9 9 10 10 9 6 5 4 5 6 5 6 9 9 10 11 11 11 11 12 12 12 12 12 13 13 13 13 13 13 14 14
9 8 9 9 9 10 11 11 12 11 11 10 10 11 10 10 9 8 7 5 4 5 7 7 8 9 9 10 10 11 11 11 11 11 11 11 12 12 12 12 13 13 13 13
9 10 9 10 9 9 11 12 11 12 11 13 12 10 11 11 10 9 7 6 6 5 5 6 6 8 8 9 10 10 10 11 11 11 11 11 11 11 11 11 12 12 12 12
9 10 9 9 9 9 9 11 11 13 11 10 13 11 9 10 9 8 7 6 4 4 4 6 8 8 9 9 9 9 9 10 10 10 10 10 10 10 11 11 10 10 11 11
10 9 9 10 11 10 11 10 10 10 11 10 13 11 9 9 8 7 7 6 5 5 5 6 7 8 9 9 9 9 9 9 9 9 9 10 10 10 10 10 10 9 9 9
9 9 8 11 9 9 11 11 11 11 12 13 12 9 9 8 8 7 6 6 5 4 4 5 6 7 7 8 8 8 9 9 9 9 9 9 9 9 9 9 9 9 9 8
10 7 6 8 8 9 10 10 10 10 10 12 11 12 10 10 9 8 6 5 5 4 4 4 5 6 6 7 7 7 8 8 8 8 8 8 8 8 8 8 8 8 8 8
8 7 7 8 9 10 9 9 10 10 10 10 11 10 11 9 7 6 6 5 4 4 4 5 5 6 6 6 7 6 6 5 5 5 6 6 7 7 7 7 7 7 7 7
8 8 8 8 8 9 11 8 9 9 9 10 12 9 9 8 8 7 5 4 4 3 2 2 4 5 5 5 5 5 5 4 4 5 5 5 5 6 6 6 7 6 6 6
8 8 7 8 9 10 8 7 7 8 8 8 8 7 8 8 5 4 4 4 3 2 2 1 1 1 1 2 3 4 3 3 3 3 3 3 4 4 5 5 6 5 6 5
8 9 8 10 10 9 8 7 8 9 9 7 7 6 5 4 4 4 2 2 2 2 2 1 1 0 -0 0 2 2 2 2 2 3 3 3 2 3 4 4 5 5 4 5
8 9 10 9 9 11 9 7 6 7 10 6 6 6 6 5 8 9 2 2 2 2 1 0 0 0 -0 1 1 1 1 2 1 2 2 2 2 2 2 3 4 4 4 4
8 8 9 9 9 9 7 6 5 9 9 5 5 5 5 7 6 3 3 2 1 1 1 1 0 0 1 1 1 1 1 1 2 2 2 2 2 1 1 2 2 3 3 3
8 8 8 7 8 9 5 6 8 7 3 4 4 4 4 3 3 3 2 1 1 1 1 1 1 1 1 1 1 1 1 1 1 1 1 2 2 1 1 2 2 2 2 2
7 8 9 8 10 6 4 5 5 5 5 3 3 4 4 3 2 2 1 1 1 0 0 0 0 1 0 0 0 0 0 0 0 1 1 1 1 1 1 1 1 1 1 2
5 4 7 7 6 5 4 4 4 4 4 4 4 3 2 1 1 1 1 0 0 -0 -0 -0 -0 -0 -0 -0 -1 -1 -1 -1 -1 -1 -0 -0 -0 0 0 1 -0 -0 1 1
6 4 6 7 6 3 4 4 4 4 3 3 3 2 2 1 1 0 -1 -1 -1 -1 -1 -1 -1 -1 -1 -1 -1 -1 -1 -2 -2 -1 -1 -1 -1 -1 -1 -0 0 -1 -1 -0
4 7 8 9 6 5 4 4 4 3 3 2 2 1 1 1 -0 -1 -1 -1 -1 -1 -1 -1 -1 -2 -2 -2 -2 -2 -2 -2 -2 -2 -1 -1 -2 -2 -2 -1 -0 -1 -1 -1

GFSCGP_850_temp_081.txt.gz
Temp
7 5 6 8 8 9 6 6 6 7 12 12 11 13 14 11 11 13 16 16 16 14 12 13 11 12 12 11 10 11 11 12 13 13 13 13 13 14 13 14 14 13 13 13
7 6 9 9 9 8 7 6 7 8 10 11 12 12 14 12 10 11 13 15 14 10 11 11 11 10 11 11 11 11 11 11 12 13 12 13 13 13 13 13 13 13 13 13
7 9 9 6 5 6 6 6 7 6 9 11 11 9 10 12 11 11 11 11 11 11 10 10 10 10 10 11 11 10 10 11 12 11 11 12 12 12 12 12 12 12 12 12
7 9 6 6 5 5 6 8 7 7 11 10 12 10 8 9 10 10 10 10 9 9 10 10 10 10 10 11 11 11 11 11 13 11 11 11 11 11 12 12 12 12 12 12
6 6 7 7 6 7 7 9 9 8 8 9 10 12 8 6 9 9 9 8 8 8 9 9 9 9 10 10 11 11 11 11 11 12 13 12 12 13 11 11 11 12 12 12
5 8 8 8 9 9 8 8 8 8 9 10 9 11 8 6 5 7 7 6 7 7 7 8 7 8 9 10 11 11 11 11 11 11 12 12 12 12 11 11 12 12 13 13
9 7 6 6 6 8 8 9 10 11 10 10 8 11 7 6 7 6 6 6 6 6 7 7 7 8 9 10 10 11 11 11 12 13 13 13 12 12 12 12 13 12 12 13
7 8 6 7 8 10 9 11 10 11 11 10 10 8 7 5 6 4 5 5 5 5 6 6 6 7 8 10 9 10 11 11 12 12 13 13 14 13 12 12 12 12 12 12
7 7 7 9 10 11 11 11 13 13 14 12 9 7 8 7 6 6 5 4 4 5 5 5 6 6 7 8 9 9 10 10 11 12 12 12 13 13 13 13 13 12 12 12
7 8 8 11 11 12 11 13 12 13 12 11 11 11 10 9 7 6 5 4 4 5 5 6 5 5 6 7 8 9 10 10 11 11 11 12 12 12 12 12 12 12 12 12
10 10 10 12 11 11 12 13 14 13 12 14 13 11 13 11 10 9 8 6 5 4 5 5 5 6 7 7 8 9 10 10 10 10 10 11 11 11 11 11 11 11 11 12
11 12 10 11 12 11 11 13 14 14 13 14 15 11 12 12 11 9 8 6 5 5 5 5 5 6 6 7 8 9 9 9 10 10 9 10 10 10 10 10 10 10 10 11
11 12 11 12 12 13 13 13 14 14 14 12 14 12 12 11 10 9 8 7 6 6 6 6 5 5 5 6 7 8 8 9 8 8 9 9 9 9 9 9 9 9 9 9
10 11 10 11 10 11 12 13 14 13 13 15 13 11 11 11 10 10 9 8 7 6 6 5 5 5 4 5 7 7 8 8 8 8 8 8 8 9 9 9 9 9 9 9
12 9 9 11 11 11 12 12 13 12 13 13 13 13 12 12 11 10 9 8 7 7 6 5 4 4 4 6 5 5 6 7 7 7 7 7 7 7 7 8 8 8 8 8
12 9 9 9 11 12 11 12 12 12 13 13 13 12 13 12 11 9 9 8 7 6 5 4 4 3 3 3 3 3 4 5 5 5 4 5 5 6 7 7 7 7 7 7
11 10 10 10 11 11 12 9 10 11 11 12 13 11 13 11 10 9 9 7 7 5 4 4 4 3 2 2 3 3 4 4 3 3 3 4 4 4 4 4 5 6 7 7
11 10 9 10 11 11 10 9 9 10 10 10 10 10 11 11 9 8 7 7 6 5 4 4 3 4 3 2 2 2 2 2 2 2 3 3 3 3 3 3 4 4 4 5
11 12 11 11 12 11 10 9 10 10 11 10 10 9 8 7 7 7 5 4 4 3 2 2 2 2 4 5 5 5 4 4 4 3 3 3 3 3 3 3 3 4 4 4
11 12 12 12 11 12 11 9 8 9 11 9 9 9 8 7 9 8 5 3 3 2 1 1 0 0 0 0 2 3 3 4 4 4 4 4 3 3 3 2 2 3 3 3
10 11 11 11 11 11 10 8 8 10 10 8 8 8 8 8 7 4 3 2 1 1 0 0 -0 -0 -0 1 1 2 2 2 2 3 3 3 4 3 3 3 2 2 2 2
10 11 11 10 10 10 8 7 9 9 6 7 7 7 6 6 4 3 2 2 1 0 -0 -0 -0 -0 1 1 1 1 1 1 1 1 1 1 1 1 2 2 2 2 1 1
10 10 10 10 11 9 8 8 6 6 7 6 6 5 4 4 4 2 2 1 1 0 0 0 1 1 1 1 0 1 -0 -1 -0 -0 -1 -1 -1 -0 0 -0 0 1 1 -1
9 7 9 9 10 9 7 6 5 4 5 4 4 3 3 3 3 2 1 1 0 -0 -1 -0 1 1 1 -1 -1 -2 -3 -2 -2 -2 -1 -1 -1 -1 -0 -1 -1 -1 0 -0
9 7 9 9 10 8 7 6 6 4 4 3 3 3 2 1 1 1 0 -0 -0 -1 -0 -0 -0 -0 -1 -2 -3 -3 -3 -3 -3 -3 -3 -2 -2 -3 -2 -2 -1 -1 -1 -1
7 9 9 11 8 8 6 4 4 3 2 2 2 1 1 1 -0 -1 -1 -1 -1 -1 -1 -2 -2 -3 -3 -3 -3 -3 -2 -3 -3 -3 -3 -3 -3 -3 -3 -3 -2 -2 -2 -1

GFSCGP_850_temp_087.txt.gz
Temp
5 4 4 3 4 4 4 4 4 6 7 8 6 7 7 9 10 8 10 11 13 14 15 14 14 14 13 13 13 13 11 11 11 11 11 11 13 12 12 12 13 13 13 13
5 4 5 5 6 6 5 5 5 6 7 7 6 6 7 9 9 9 10 12 13 13 13 13 13 13 13 12 12 12 12 11 10 11 11 11 12 12 12 12 12 13 13 13
3 5 6 5 4 5 5 5 5 6 7 6 6 6 7 9 10 10 11 12 12 13 13 11 12 11 11 10 11 10 12 10 10 11 11 11 12 12 11 12 12 11 12 13
5 7 7 6 5 6 6 6 6 6 6 5 6 3 8 7 7 7 8 9 12 12 10 9 9 10 10 10 10 11 10 11 10 10 11 11 11 12 12 11 11 12 12 12
5 5 6 6 6 6 6 7 7 6 6 7 7 7 7 8 7 6 7 8 8 7 8 8 8 9 9 11 10 10 10 10 10 10 10 10 11 11 12 11 11 11 11 12
5 6 6 7 7 8 8 7 6 7 7 7 7 7 7 6 6 6 7 6 7 7 7 8 8 8 9 9 10 9 9 10 10 10 10 10 10 10 11 11 11 12 12 11
6 7 7 6 6 8 7 6 8 8 7 9 7 8 6 6 6 6 6 5 5 6 6 7 8 8 9 8 8 8 9 9 10 9 9 10 10 11 12 12 11 12 12 13
6 4 6 7 6 7 7 7 7 9 8 8 9 7 6 5 5 5 4 4 5 5 5 5 6 6 6 7 8 8 8 9 9 9 10 10 11 11 11 11 11 11 12 13
6 7 8 7 8 9 8 8 7 8 9 8 7 6 4 4 5 5 4 4 3 4 4 4 4 5 6 7 7 7 8 8 8 9 9 9 9 10 10 11 11 11 11 11
7 7 8 9 9 10 9 10 8 8 9 9 8 8 7 5 4 4 4 3 3 3 3 4 4 5 6 6 7 7 8 8 8 9 9 9 10 9 9 9 10 10 11 12
7 7 9 9 10 9 9 9 10 10 9 9 8 8 7 6 5 4 4 3 3 3 3 4 5 5 6 7 7 8 8 8 9 9 10 10 10 10 11 11 11 11 11 11
8 8 6 10 11 10 9 9 9 7 9 7 6 7 8 6 5 5 4 4 4 4 5 5 6 6 7 7 8 8 8 9 9 9 9 9 10 10 10 10 10 10 10 11
8 7 5 7 8 9 10 10 9 10 7 7 6 6 7 6 6 4 4 5 6 6 6 6 6 6 6 6 7 8 8 9 8 9 9 9 9 9 9 10 10 10 10 10
8 7 6 5 7 8 9 9 9 8 5 6 6 5 5 5 5 5 6 6 6 5 5 5 5 6 6 7 7 7 8 8 8 8 8 8 8 8 8 9 8 8 9 9
8 6 5 9 10 9 8 8 8 7 9 7 6 7 6 5 5 6 6 6 6 5 5 5 5 5 6 6 7 7 7 7 7 7 7 7 7 7 7 7 7 7 7 7
8 6 7 5 9 9 8 7 8 8 8 8 8 8 7 8 8 7 7 7 6 6 5 5 5 4 5 5 5 5 5 5 6 6 6 6 6 6 6 6 6 6 6 6
8 5 3 5 8 9 7 7 7 8 7 9 8 9 7 6 7 7 7 7 6 6 5 4 4 4 4 5 4 5 5 4 4 4 4 5 5 5 6 6 6 6 6 6
8 6 2 3 6 5 7 8 8 8 8 7 7 6 7 7 8 8 8 7 6 6 5 4 4 4 4 4 3 4 4 4 4 4 4 4 4 4 5 5 5 5 5 5
7 6 4 4 4 8 8 8 8 8 8 7 7 6 6 7 7 5 6 6 5 5 4 4 4 3 2 2 2 3 3 3 3 3 3 3 3 3 2 2 2 2 3 3
8 7 5 6 7 9 8 7 8 8 6 7 7 6 6 6 4 2 5 5 4 4 4 3 3 3 3 3 3 3 3 3 2 1 0 -0 -0 -0 0 1 1 1 1 1
5 5 6 5 6 7 8 7 8 8 7 7 7 7 6 4 5 5 4 4 4 4 3 3 3 3 3 2 2 3 3 2 1 -0 -1 -1 -1 -1 -1 -1 -1 -1 -1 -1
6 4 5 5 6 6 7 7 7 6 7 7 7 7 6 6 5 4 4 4 3 2 2 2 2 2 2 1 1 1 1 0 1 1 1 0 0 -1 -1 -2 -2 -2 -2 -2
5 5 6 5 6 7 8 7 7 7 7 6 6 6 5 5 4 3 3 2 2 1 1 1 1 1 1 -0 -1 -1 -1 -1 -2 -2 -2 -2 -1 -1 -1 -2 -2 -2 -3 -3
6 6 5 6 6 7 8 7 7 7 6 6 5 5 4 4 3 2 2 1 1 1 1 1 0 -0 -0 -1 -1 -2 -2 -3 -3 -3 -3 -3 -3 -3 -3 -3 -3 -3 -4 -4
5 5 4 4 5 7 7 7 7 6 5 5 4 4 4 3 2 2 1 1 1 1 0 -0 -1 -1 -2 -2 -2 -3 -3 -3 -4 -4 -4 -4 -4 -4 -4 -4 -4 -4 -4 -5
4 3 4 4 6 6 6 6 6 5 5 4 3 3 2 2 2 1 1 1 0 -0 -1 -1 -1 -2 -2 -3 -3 -3 -3 -4 -5 -5 -5 -5 -5 -5 -5 -5 -5 -5 -5 -5

GFSCGP_850_temp_090.txt.gz
Temp
5 3 3 3 3 3 2 2 3 5 6 6 6 6 7 7 7 8 9 10 10 12 13 13 13 14 14 14 13 13 13 13 13 12 12 11 12 12 13 14 12 12 13 13
4 4 4 4 4 3 3 4 5 6 7 7 7 6 7 7 7 9 9 9 11 11 13 13 13 13 13 12 12 12 12 11 11 13 12 11 12 12 11 13 12 11 12 13
2 4 5 5 4 4 4 5 6 5 6 6 6 7 6 8 8 8 9 9 11 13 13 13 13 12 11 11 10 11 11 10 10 12 12 11 11 11 12 12 11 11 11 12
4 5 5 5 5 5 5 7 6 6 6 6 6 3 6 6 7 6 7 8 8 9 10 11 11 10 9 10 9 10 10 10 10 11 12 10 10 11 11 12 11 11 11 11
3 5 5 5 6 6 6 6 6 7 6 6 6 7 7 6 7 6 7 7 7 8 8 8 9 12 9 9 9 10 10 10 11 11 10 10 10 11 11 11 11 10 11 11
5 6 5 6 7 7 7 7 7 6 6 6 4 6 6 6 6 7 7 6 6 7 7 7 8 8 8 9 9 9 9 10 10 10 10 10 10 10 10 11 11 10 10 11
7 7 7 7 6 7 7 6 7 7 6 8 8 7 6 5 6 6 6 5 5 5 5 5 6 7 8 8 8 8 9 10 9 9 9 9 10 10 10 9 10 10 10 10
6 6 7 7 6 7 7 6 7 9 8 6 7 7 6 5 5 5 4 4 4 4 4 4 5 6 7 7 8 8 9 9 9 9 10 10 10 10 10 9 10 9 9 10
6 6 7 7 7 7 7 7 7 8 8 7 7 6 5 4 5 5 4 3 4 3 4 3 4 4 5 6 6 7 7 7 8 8 8 9 10 10 10 10 10 9 10 10
7 7 8 9 7 8 8 9 7 7 8 9 8 8 7 5 4 3 4 3 2 2 2 3 3 4 4 5 6 7 7 8 8 8 8 8 9 9 10 10 10 11 11 11
6 7 8 9 9 9 9 8 9 9 8 8 8 7 6 4 3 3 3 3 2 2 2 3 4 5 5 6 7 7 8 8 8 8 8 8 8 8 9 9 9 9 10 10
6 7 5 9 10 10 9 8 8 8 9 5 6 6 6 5 4 4 3 3 3 3 3 4 4 5 5 6 7 8 8 8 8 8 8 9 8 8 9 9 9 9 9 9
8 6 5 7 8 8 8 8 8 8 5 6 5 6 5 5 5 4 4 4 4 4 5 5 5 6 6 7 7 7 7 8 8 8 8 8 9 9 8 8 9 9 9 9
8 6 6 4 7 7 7 7 7 7 4 6 5 5 5 4 4 4 5 5 5 5 5 5 5 5 6 6 7 7 7 7 7 6 7 7 7 7 7 7 7 7 8 8
8 7 5 8 9 8 7 6 7 6 7 7 6 5 5 4 3 4 5 5 5 5 5 5 5 5 6 6 5 6 6 7 6 6 6 6 6 6 7 7 7 7 7 6
6 5 6 5 9 8 8 6 6 7 7 6 7 8 6 6 6 5 5 5 5 5 5 5 5 5 5 5 6 6 6 6 6 6 6 6 6 6 6 6 6 6 6 6
7 4 2 5 6 7 7 7 7 7 7 8 8 8 5 6 5 6 6 6 6 6 5 5 5 5 4 4 4 5 4 5 5 5 5 5 5 5 5 5 6 6 5 5
6 5 1 2 5 5 7 7 7 8 7 7 6 6 6 6 6 7 7 7 6 5 5 5 5 4 4 4 4 3 3 3 3 4 4 4 3 3 4 4 3 3 3 4
6 4 3 4 3 6 8 7 7 8 7 7 6 5 5 6 6 5 6 6 6 5 5 4 4 3 3 3 2 2 2 2 2 2 2 2 2 1 1 1 1 1 1 1
6 4 5 4 7 8 9 7 7 7 5 6 7 5 5 6 4 3 5 5 5 5 5 4 4 4 3 2 2 2 2 2 1 1 0 0 -0 -1 -1 -1 -0 -1 -1 -0
5 4 5 5 4 6 7 6 7 7 7 7 7 7 6 4 5 6 5 4 4 4 3 3 3 2 2 2 2 2 2 1 0 0 -0 -1 -2 -2 -2 -2 -2 -2 -2 -2
6 4 4 4 5 5 7 6 6 6 6 7 7 7 6 6 5 5 4 4 3 3 3 2 2 2 1 1 0 1 1 -0 -1 -1 -2 -2 -2 -3 -3 -3 -3 -3 -3 -3
5 5 5 5 5 6 7 7 8 8 7 7 7 6 6 6 4 4 3 3 2 2 2 1 1 1 1 0 -0 -1 -2 -2 -2 -2 -2 -2 -2 -2 -3 -3 -4 -4 -4 -4
5 4 4 5 6 5 8 8 7 7 7 7 6 6 5 5 4 3 2 2 2 1 1 1 0 -0 -0 -1 -1 -2 -3 -3 -3 -3 -3 -4 -4 -4 -4 -4 -4 -4 -4 -5
4 4 4 3 4 6 7 7 7 7 6 6 5 5 4 4 3 2 2 1 1 0 0 -1 -1 -1 -2 -2 -2 -3 -3 -4 -4 -4 -4 -4 -5 -5 -5 -5 -5 -5 -5 -5
3 3 4 4 7 6 7 7 7 6 6 5 4 3 3 2 2 1 1 0 0 -0 -1 -1 -2 -2 -3 -3 -3 -4 -4 -5 -5 -5 -5 -5 -5 -6 -6 -6 -5 -5 -5 -5

GFSCGP_850_temp_096.txt.gz
Temp
4 2 0 2 2 1 0 1 2 3 5 5 4 4 5 6 6 5 6 6 7 8 10 9 10 11 12 13 14 14 14 14 13 13 13 12 13 13 12 12 12 12 12 12
1 2 3 3 3 3 2 2 4 4 5 6 5 5 6 6 5 6 6 6 6 7 8 8 10 10 12 13 13 14 13 13 12 12 12 11 11 12 12 12 12 12 12 12
2 4 4 4 3 3 4 3 4 5 6 6 5 5 5 6 6 6 6 6 7 7 7 7 7 9 12 13 13 13 12 12 12 11 11 11 11 11 11 12 12 12 12 13
3 4 4 4 4 5 4 6 6 6 6 6 6 4 5 5 6 5 5 5 6 7 7 7 6 8 8 11 11 11 11 11 12 11 10 10 10 10 10 12 12 11 11 12
3 4 4 5 5 6 6 7 7 6 6 6 5 5 4 5 5 6 6 5 5 6 6 6 6 6 7 8 8 8 9 9 9 10 10 10 10 9 10 12 10 10 11 11
4 5 5 6 6 7 7 6 6 6 6 6 5 5 2 6 6 6 6 4 4 4 5 5 6 6 6 7 8 8 8 9 9 9 9 9 9 10 10 10 10 10 11 11
6 5 6 6 5 7 6 6 6 4 4 5 6 5 4 6 5 6 5 4 3 3 4 4 5 5 5 6 7 7 8 8 9 8 9 9 9 10 10 10 9 10 10 10
5 4 6 6 6 7 7 6 6 5 7 7 7 7 5 5 5 4 4 3 3 3 3 3 3 4 5 4 4 5 6 6 8 8 8 8 8 9 9 9 9 10 9 10
6 6 7 6 7 7 7 7 7 7 7 7 6 7 5 5 4 4 3 2 3 3 3 2 2 3 3 3 3 4 6 6 6 6 8 8 8 8 9 8 8 9 9 9
6 6 7 7 6 7 7 7 8 7 8 9 7 7 7 5 4 2 2 1 2 2 2 2 2 3 3 4 4 5 5 6 6 7 8 8 9 8 8 8 9 8 8 9
6 6 7 8 7 9 6 7 7 7 7 8 7 7 6 5 3 3 2 2 2 2 2 2 3 3 3 4 5 6 6 6 7 6 7 7 7 7 7 8 8 8 8 8
6 5 4 8 9 8 8 8 6 5 7 5 6 7 5 5 4 3 2 2 2 2 3 3 3 3 4 4 4 5 5 6 6 5 6 6 6 6 7 7 6 7 7 7
6 5 3 7 8 7 7 7 6 5 4 6 5 6 5 5 4 3 3 3 3 3 3 3 3 3 4 4 4 4 5 5 5 5 5 6 6 6 6 6 6 6 6 6
7 5 6 4 7 6 6 6 5 5 3 5 5 6 6 5 5 4 4 4 4 4 4 4 4 3 4 4 4 5 5 5 5 5 5 5 5 5 5 5 6 6 6 6
6 5 4 5 5 6 6 6 5 5 6 6 6 6 6 4 3 4 5 4 4 4 4 4 4 4 4 4 4 4 4 4 4 4 4 4 4 4 3 4 4 4 4 4
4 5 5 3 7 6 6 6 6 6 6 6 6 7 6 5 5 4 5 4 4 5 5 4 4 4 4 4 4 4 4 4 4 4 4 3 3 3 3 3 3 3 3 3
5 3 2 4 5 5 6 7 7 7 6 7 7 7 4 4 3 5 5 5 5 5 5 4 4 4 4 3 3 4 4 4 3 3 3 2 2 2 2 2 2 2 2 2
5 3 0 2 4 5 8 6 6 6 5 5 6 5 4 5 6 6 7 6 6 6 5 4 4 4 3 4 3 3 3 3 3 2 2 1 1 1 1 1 1 0 0 0
3 3 3 2 2 6 7 6 6 6 7 4 5 5 5 5 5 6 7 6 6 5 5 4 4 3 3 3 2 2 1 1 1 1 1 0 -0 -0 -0 -0 -0 -1 -1 -1
3 2 4 3 6 8 8 6 6 7 6 5 5 4 3 4 3 3 7 6 5 5 4 3 3 3 2 1 2 1 1 1 1 1 1 1 -0 -1 -1 -1 -1 -2 -2 -2
4 3 4 3 4 5 5 6 6 8 7 6 6 6 5 3 5 6 5 4 4 4 3 3 3 3 2 2 2 2 1 1 -0 -1 -1 -1 -2 -2 -2 -3 -3 -3 -3 -3
5 3 3 2 4 5 5 5 6 6 6 7 7 7 6 7 6 5 5 4 4 3 3 3 3 2 2 1 1 0 -0 -1 -1 -1 -2 -2 -2 -2 -3 -3 -4 -4 -4 -4
3 4 4 4 4 6 7 8 9 8 8 7 7 7 7 6 6 6 5 5 4 4 3 3 2 2 1 0 -0 -1 -1 -1 -2 -2 -2 -3 -3 -3 -4 -4 -5 -5 -5 -5
3 2 3 5 5 3 7 9 8 8 8 8 8 8 7 7 6 5 5 4 3 3 2 2 1 1 0 -0 -1 -2 -2 -3 -3 -3 -3 -3 -3 -4 -4 -5 -5 -5 -5 -6
4 2 2 1 3 5 7 8 9 8 7 7 7 7 6 6 5 4 4 3 2 2 1 1 1 0 -0 -1 -1 -2 -3 -3 -3 -3 -4 -4 -5 -5 -5 -5 -6 -6 -6 -6
1 2 3 4 6 6 7 9 9 7 8 7 7 6 5 5 4 4 3 2 2 1 1 0 -0 -1 -1 -1 -2 -3 -3 -4 -4 -5 -5 -6 -6 -6 -6 -7 -6 -6 -6 -6

GFSCGP_850_temp_099.txt.gz
Temp
3 3 4 3 3 2 1 2 2 3 5 4 5 5 6 7 5 5 5 5 6 6 7 9 9 10 10 9 10 12 13 13 13 13 13 13 14 14 13 13 12 12 12 12
3 3 4 3 3 3 2 2 3 4 5 6 6 6 6 6 6 6 6 6 7 7 8 7 7 7 9 9 11 12 13 13 13 13 13 12 12 12 12 12 12 12 12 12
3 4 4 4 3 3 3 3 4 4 6 6 5 5 6 6 6 6 5 5 6 7 7 7 7 7 8 7 8 12 12 13 12 12 12 12 11 11 11 11 12 12 12 12
3 4 4 4 3 4 4 6 6 5 6 7 6 8 6 5 6 6 5 5 5 5 6 6 6 7 7 7 10 12 12 12 12 12 11 11 10 10 10 10 10 12 12 12
3 4 4 4 5 5 5 7 7 7 6 6 6 6 6 5 6 6 6 5 4 4 6 5 5 6 6 7 9 10 10 10 9 10 10 9 9 9 10 11 12 10 11 11
4 5 4 5 5 6 7 6 6 6 6 7 5 6 6 6 6 6 6 4 4 4 4 4 4 5 6 6 8 8 9 8 8 8 9 9 9 9 9 11 10 10 11 11
4 5 6 6 5 6 6 6 5 4 7 6 7 6 7 6 6 6 5 4 3 3 3 3 3 3 4 5 6 6 7 7 7 8 8 8 9 9 9 9 9 10 10 10
3 5 6 5 6 7 6 6 7 5 6 7 6 7 7 5 5 4 3 3 3 3 2 2 2 2 3 3 4 4 4 4 5 6 7 8 8 8 8 8 8 9 9 9
5 4 6 5 7 7 7 6 7 7 7 8 8 7 6 5 4 3 1 2 2 2 2 2 2 2 2 3 3 2 2 4 4 6 6 6 6 6 7 8 8 8 9 8
6 7 7 7 6 7 7 7 7 7 7 8 8 7 7 5 4 2 1 1 1 1 1 1 2 2 3 3 4 5 5 5 5 5 6 7 7 8 8 8 8 9 9 9
6 6 6 7 6 7 7 6 6 6 7 8 8 8 6 4 3 3 2 2 1 1 1 2 2 3 3 3 4 4 5 5 6 6 7 6 6 7 7 7 7 7 7 7
6 6 5 7 8 8 8 7 6 6 7 6 6 8 5 5 4 2 3 2 2 2 2 2 2 2 3 4 4 5 5 5 6 6 6 6 6 6 6 6 6 6 7 7
5 5 4 7 7 7 7 7 6 5 4 5 6 8 5 5 4 3 3 3 3 3 3 3 3 3 4 4 5 5 4 4 4 5 5 5 5 5 5 5 5 5 5 5
7 4 5 5 7 6 6 6 5 4 4 6 5 6 6 5 5 4 3 4 4 4 4 3 3 3 4 4 4 4 4 4 4 4 4 4 4 4 4 4 4 4 4 4
5 5 3 4 4 5 5 6 6 4 5 6 7 5 6 4 4 5 5 4 4 4 4 4 4 4 4 4 4 4 4 4 4 4 4 3 3 3 3 3 3 3 3 3
3 4 5 3 5 5 5 5 5 5 6 5 5 5 5 6 5 4 5 5 5 5 5 4 4 4 4 4 4 4 4 4 3 3 3 2 2 2 2 2 2 2 2 2
4 3 2 4 4 4 5 5 5 6 5 6 6 7 4 4 3 5 6 5 6 6 5 5 4 4 4 4 4 3 3 3 2 2 2 2 2 2 2 1 1 1 1 0
4 3 0 2 3 5 8 6 6 6 6 4 5 5 4 5 7 7 7 7 6 6 6 5 5 4 4 3 3 3 3 2 2 1 1 0 0 -0 -1 -1 -1 -1 -1 -1
2 2 3 2 2 6 7 5 5 6 8 4 4 5 5 5 5 6 7 7 6 6 5 5 4 4 3 3 3 2 2 1 0 -0 -0 -0 -1 -1 -1 -1 -1 -2 -2 -2
2 2 3 2 5 8 8 6 6 6 6 5 5 4 3 4 5 4 7 7 6 6 5 4 4 4 3 2 1 1 1 0 -0 -0 -0 -1 -1 -1 -1 -2 -2 -3 -3 -3
3 2 3 3 3 5 5 5 6 8 8 6 6 6 4 3 6 7 7 6 5 5 4 4 3 2 1 1 1 0 0 0 0 -0 -1 -1 -2 -2 -3 -3 -3 -3 -4 -4
4 2 2 1 3 5 5 5 7 7 7 7 7 7 6 7 6 6 5 5 4 4 3 3 2 1 1 0 -0 -0 -0 -1 -1 -1 -2 -2 -3 -3 -4 -4 -4 -4 -5 -5
3 4 4 4 5 6 6 8 9 9 9 8 8 8 7 6 6 6 5 4 4 3 2 2 1 1 1 0 0 -0 -1 -1 -1 -2 -2 -3 -3 -3 -4 -4 -5 -5 -5 -6
2 2 3 5 5 3 7 8 8 8 8 8 8 8 7 7 6 6 5 4 3 2 2 2 2 1 1 -0 -1 -1 -2 -2 -3 -3 -3 -3 -3 -4 -4 -5 -5 -6 -6 -6
3 1 1 1 2 6 8 8 9 8 7 7 7 7 7 7 6 6 5 4 3 3 2 2 1 0 -0 -1 -2 -2 -3 -3 -3 -4 -4 -4 -4 -4 -5 -5 -6 -6 -6 -7
1 1 3 4 7 7 7 8 8 9 8 7 7 7 7 6 6 5 4 3 2 2 1 1 0 -0 -1 -2 -2 -3 -3 -4 -4 -5 -5 -5 -5 -6 -7 -7 -7 -7 -8 -9